EA1BQO-1 Weather Reports


time (UTC)temp
F
wind
direction
speed
knots
gust
knots
rain 1hr
in
rain 24hr
in
rain mn
in
humidity
%
barometer
mb
20260508100800 50 250 1.7 6.1 0.01 0.11 0.04 96 1007.1
20260508095800 51 216 0.9 7.8 0.01 0.11 0.04 96 1007.0
20260508094800 52 162 0.9 1.7 0.01 0.11 0.04 98 1006.8
20260508093800 52 93 0.0 2.6 0.01 0.11 0.04 98 1006.4
20260508092800 51 126 0.0 4.3 0.00 0.10 0.03 97 1006.3
20260508091800 52 110 0.9 2.6 0.00 0.10 0.03 98 1006.2
20260508090800 52 94 0.0 2.6 0.00 0.10 0.03 98 1006.1
20260508085800 52 75 0.0 1.7 0.00 0.10 0.03 99 1006.1
20260508084800 51 225 0.0 0.0 0.01 0.10 0.03 99 1006.1
20260508083800 51 212 0.0 0.9 0.01 0.10 0.03 99 1006.2
20260508082800 51 144 0.0 2.6 0.02 0.10 0.03 98 1006.2
20260508081800 51 309 0.0 0.9 0.02 0.10 0.03 98 1006.1
20260508080800 51 321 0.0 0.9 0.02 0.10 0.03 97 1006.3
20260508075800 51 186 0.0 0.9 0.02 0.10 0.03 96 1006.5
20260508074801 50 257 0.0 4.3 0.01 0.09 0.02 96 1006.3
20260508073800 51 234 0.0 2.6 0.01 0.09 0.02 92 1006.6
20260508072800 51 98 0.0 6.1 0.00 0.08 0.01 90 1006.7
20260508071800 51 68 2.6 7.8 0.00 0.08 0.01 88 1006.3
20260508070800 51 84 4.3 8.7 0.00 0.08 0.01 88 1006.4
20260508065800 51 97 2.6 6.1 0.00 0.08 0.01 88 1006.1
20260508064800 51 174 0.9 4.3 0.00 0.08 0.01 88 1006.0
20260508063800 51 33 0.0 5.2 0.00 0.08 0.01 88 1005.7
20260508062800 51 22 3.5 6.1 0.00 0.08 0.01 89 1005.6
20260508061800 51 25 2.6 6.1 0.00 0.08 0.01 89 1005.5
20260508060800 51 84 1.7 7.8 0.00 0.08 0.01 90 1005.3
20260508055800 51 54 2.6 6.1 0.00 0.08 0.01 91 1005.1
20260508054800 51 38 3.5 7.0 0.00 0.08 0.01 94 1005.1
20260508053800 51 67 0.9 7.0 0.00 0.08 0.01 99 1005.2
20260508052800 50 104 2.6 5.2 0.00 0.08 0.01 99 1005.1
20260508051800 49 122 1.7 4.3 0.00 0.08 0.01 99 1005.1
20260508050800 49 109 1.7 5.2 0.00 0.08 0.01 99 1005.0
20260508045800 49 108 0.9 4.3 0.00 0.08 0.01 99 1005.0
20260508044800 49 96 1.7 3.5 0.00 0.08 0.01 99 1005.0
20260508043800 49 86 0.0 2.6 0.00 0.08 0.01 99 1005.1
20260508042800 49 91 0.0 2.6 0.00 0.08 0.01 99 1005.1
20260508041800 49 93 0.0 4.3 0.00 0.08 0.01 99 1005.0
20260508040800 49 70 1.7 3.5 0.00 0.08 0.01 99 1005.0
20260508035800 49 69 0.9 2.6 0.00 0.08 0.01 99 1005.1
20260508034800 49 124 0.0 0.9 0.00 0.08 0.01 99 1005.1
20260508033800 50 48 0.0 4.3 0.00 0.08 0.01 99 1005.2
20260508032800 50 35 0.0 3.5 0.00 0.08 0.01 99 1005.2
20260508031800 50 3 0.0 3.5 0.00 0.08 0.01 99 1005.3
20260508030800 50 80 0.0 5.2 0.00 0.08 0.01 99 1005.4
20260508025800 50 71 1.7 5.2 0.00 0.08 0.01 99 1005.1
20260508024800 50 72 1.7 4.3 0.00 0.08 0.01 99 1005.4
20260508023800 50 90 0.9 5.2 0.00 0.08 0.01 99 1005.6
20260508022800 50 37 2.6 5.2 0.00 0.08 0.01 99 1005.6
20260508021800 49 69 5.2 7.8 0.00 0.08 0.01 99 1005.8
20260508020800 49 51 0.9 4.3 0.01 0.08 0.01 99 1006.0
20260508015800 49 65 0.9 2.6 0.01 0.08 0.01 99 1006.2
20260508014800 49 90 0.0 1.7 0.01 0.08 0.01 99 1006.1
20260508013800 49 0 0.0 0.0 0.01 0.08 0.01 99 1006.3
20260508012800 49 129 0.0 2.6 0.01 0.08 0.01 99 1006.5
20260508011800 49 132 0.0 2.6 0.01 0.08 0.01 99 1006.6
20260508010800 49 88 0.9 2.6 0.00 0.07 0.00 99 1006.7
20260508005800 49 16 0.0 2.6 0.00 0.07 0.00 99 1006.9
20260508004800 49 266 0.0 4.3 0.00 0.07 0.00 99 1007.4
20260508003800 49 252 0.9 3.5 0.00 0.07 0.00 99 1007.5
20260508002800 49 6 0.0 2.6 0.00 0.07 0.00 99 1007.5
20260508001800 49 311 0.0 2.6 0.00 0.07 0.00 99 1007.1
20260508000800 49 225 0.0 0.0 0.00 0.07 0.00 99 1007.2
20260507235800 49 140 0.0 2.6 0.00 0.07 0.00 99 1007.2
20260507234759 49 108 1.7 3.5 0.00 0.07 0.00 99 1007.1
20260507233800 50 103 0.0 2.6 0.00 0.07 0.00 99 1007.0
20260507232759 50 80 0.0 2.6 0.00 0.07 0.00 99 1007.3
20260507231800 50 74 0.0 2.6 0.00 0.07 0.00 99 1007.3
20260507230759 50 103 0.9 3.5 0.00 0.07 0.00 99 1007.4
20260507225759 50 108 0.9 1.7 0.00 0.07 0.00 99 1007.5
20260507224759 51 45 0.0 1.7 0.00 0.07 0.00 99 1007.7
20260507223759 51 94 0.9 2.6 0.00 0.07 0.00 99 1007.6
20260507222759 51 125 0.0 2.6 0.00 0.07 0.00 98 1007.9
20260507221759 51 94 0.0 2.6 0.00 0.07 0.00 97 1007.8
20260507220759 51 104 0.0 2.6 0.00 0.07 0.00 96 1008.0
20260507215759 51 145 0.9 1.7 0.00 0.07 0.07 94 1008.0
20260507214759 51 136 0.0 1.7 0.00 0.07 0.07 94 1008.1
20260507213759 51 181 0.0 0.9 0.00 0.07 0.07 93 1007.8
20260507212759 51 133 0.0 0.0 0.00 0.07 0.07 92 1007.8
20260507211759 51 137 0.0 0.9 0.00 0.07 0.07 91 1007.8
20260507210759 52 136 0.0 0.9 0.01 0.07 0.07 91 1007.6
20260507205759 52 171 0.0 0.9 0.03 0.07 0.07 90 1007.6
20260507204759 52 261 0.0 1.7 0.04 0.07 0.07 90 1007.4
20260507203759 52 303 0.0 2.6 0.04 0.07 0.07 90 1007.3
20260507202759 53 247 0.0 2.6 0.04 0.07 0.07 88 1007.2
20260507201759 53 247 0.9 4.3 0.04 0.07 0.07 84 1007.3
20260507200759 54 225 1.7 5.2 0.03 0.05 0.05 81 1007.0
20260507195759 54 194 0.0 6.1 0.00 0.02 0.02 74 1006.9
20260507194759 55 206 3.5 6.1 0.00 0.02 0.02 73 1006.6
20260507193759 55 227 1.7 4.3 0.00 0.02 0.02 73 1006.2
20260507192759 55 194 2.6 6.1 0.00 0.02 0.02 71 1006.1
20260507191759 56 195 2.6 5.2 0.00 0.02 0.02 65 1005.9
20260507190759 58 212 1.7 2.6 0.00 0.02 0.02 59 1005.9
20260507185759 59 285 0.0 2.6 0.00 0.02 0.02 55 1005.7
20260507184759 60 87 0.0 3.5 0.00 0.02 0.02 52 1005.4
20260507183759 60 70 0.0 2.6 0.00 0.02 0.02 51 1005.1
20260507182759 60 105 0.0 6.1 0.00 0.02 0.02 50 1005.1
20260507181759 61 91 2.6 6.1 0.00 0.02 0.02 48 1005.1
20260507180759 61 111 2.6 7.8 0.00 0.02 0.02 49 1005.1
20260507175759 61 137 2.6 7.0 0.00 0.02 0.02 46 1004.8
20260507174759 63 120 4.3 7.8 0.00 0.02 0.02 40 1004.7
20260507173759 64 123 3.5 8.7 0.00 0.02 0.02 43 1004.6
20260507172759 62 145 5.2 8.7 0.00 0.02 0.02 48 1004.8
20260507171759 63 118 4.3 7.8 0.00 0.02 0.02 45 1004.8
20260507170759 64 127 2.6 7.8 0.00 0.02 0.02 46 1004.8
20260507165759 64 121 5.2 9.6 0.00 0.02 0.02 44 1004.7
20260507164759 63 133 5.2 10.4 0.00 0.02 0.02 46 1004.9
20260507163759 63 131 5.2 10.4 0.00 0.02 0.02 46 1005.1
20260507162759 63 119 4.3 9.6 0.00 0.02 0.02 46 1005.0
20260507161759 63 135 7.0 8.7 0.00 0.02 0.02 46 1005.1
20260507160759 64 145 2.6 6.1 0.00 0.02 0.02 46 1005.0
20260507155759 64 60 2.6 5.2 0.00 0.02 0.02 49 1005.1
20260507154759 63 70 2.6 3.5 0.00 0.02 0.02 55 1005.5
20260507153759 61 65 2.6 7.0 0.00 0.02 0.02 58 1005.4
20260507152759 61 64 4.3 8.7 0.01 0.02 0.02 61 1005.5
20260507151759 58 52 2.6 5.2 0.01 0.02 0.02 70 1005.8
20260507150759 56 34 0.9 7.8 0.01 0.02 0.02 68 1006.0
20260507145759 56 337 3.5 7.8 0.01 0.02 0.02 65 1006.0
20260507144759 56 27 3.5 5.2 0.01 0.02 0.02 64 1006.1
20260507143759 57 24 0.0 6.1 0.01 0.02 0.02 65 1006.4
20260507142759 58 65 4.3 7.0 0.00 0.01 0.01 56 1005.8
20260507141759 58 50 2.6 12.2 0.00 0.01 0.01 53 1005.7
20260507140759 59 44 7.8 10.4 0.00 0.01 0.01 53 1005.7
20260507135759 60 89 2.6 10.4 0.00 0.01 0.01 46 1005.5
20260507134759 62 92 2.6 11.3 0.00 0.01 0.01 41 1005.3
20260507133759 62 63 2.6 6.1 0.00 0.01 0.01 47 1005.3
20260507132759 62 37 1.7 7.8 0.00 0.01 0.01 47 1005.2
20260507131759 64 39 2.6 6.1 0.00 0.01 0.01 42 1005.2
20260507130759 63 20 2.6 7.0 0.00 0.01 0.01 43 1005.2
20260507125759 60 47 4.3 5.2 0.00 0.01 0.01 55 1005.3
20260507124759 60 90 1.7 6.1 0.00 0.01 0.01 54 1005.6
20260507123758 61 33 1.7 6.1 0.00 0.01 0.01 48 1005.8
20260507122758 62 49 2.6 8.7 0.01 0.01 0.01 38 1005.9
20260507121758 65 67 2.6 5.2 0.01 0.01 0.01 35 1005.8
20260507120758 63 23 0.0 2.6 0.01 0.01 0.01 47 1005.9
20260507115758 62 355 0.0 7.8 0.01 0.01 0.01 49 1006.0
20260507114758 62 17 4.3 6.1 0.01 0.01 0.01 49 1006.1
20260507113758 61 48 0.0 2.6 0.01 0.01 0.01 50 1006.3
20260507112758 60 41 0.0 5.2 0.00 0.00 0.00 47 1006.4
20260507111758 62 50 0.9 5.2 0.00 0.00 0.00 47 1006.4
20260507110758 62 51 0.0 6.1 0.00 0.00 0.00 42 1006.3
20260507105758 63 59 3.5 7.8 0.00 0.00 0.00 36 1006.3
20260507104758 63 85 2.6 6.1 0.00 0.00 0.00 36 1006.3
20260507103758 64 100 2.6 8.7 0.00 0.00 0.00 38 1006.4
20260507102758 65 77 2.6 10.4 0.00 0.00 0.00 35 1006.6
20260507101758 65 70 1.7 7.8 0.00 0.00 0.00 40 1006.6